FENGYUN 1C DEB, 41823

Orbit data source: Space-Track

FENGYUN 1C DEB, 41823 is space debris in SSO originally from a launch on Mon, 10 May 1999 UTC launched from the Taiyaun Space Center, China (TSC). Fengyun 1C debris stems from the Chinese weather satellite Fengyun-1C, which was intentionally destroyed by a Chinese anti-satellite missile in 2007. This event dramatically increased the amount of space debris, with thousands of trackable fragments posing hazards to satellites and human spaceflight. The Fengyun 1C debris cloud has become a focal point in discussions about space sustainability and the need for international regulations to prevent the creation of new debris.

Loading next visibility...
Identifier
41823, 1999-025EYA
Orbit
SSO
Country
Flag of CNCN / PRC
Related business
Manufacturer
Unknown
Mission
Spacecraft
Bus & Motor
Unknown
Mass
Unknown
Launch date (UTC)
1999-05-10 (27 years ago)
Launch vehicle
Unknown
Launch site
Taiyaun Space Center, China (TSC)
Object type
Payload
Rocket body
Debris
Shape & HBR
Unknown shape, 0.1 m
Radar Cross Section
Medium (>0.1 m² and <1 m²)

Expand to show TLE details & history
Last TLE update: 17 hours ago

TLE from 17 hours ago
0 FENGYUN 1C DEB
1 41823U 99025EYA 26209.15178406  .00002131  00000-0  91981-3 0  9992
2 41823  98.7040 275.4805 0051631 289.1780  70.3815 14.24813143505959
Epoch: 2026-07-28T03:38Z
TLE epoch observation values (Epoch: 2026-07-28T03:38:34.142Z)
Latitude
-0.00008°
Longitude
-84.98686°
Altitude
799.751 km
Speed
7.46 km/s
True Right ascension
18h 21m 55s
True Declination
0° 00' 00"
Sunlit
Object was in full shadow at epoch
Visualization orbit readout
Latitude
Unknown
Longitude
Unknown
Altitude
Unknown
Speed
Unknown
Apparent Right ascension
Unknown
Apparent Declination
Unknown
Sunlit
N/A
Visualization observer readout
Local Sidereal Time
09:45:56
Azimuth
Unknown
Elevation
Unknown
Doppler factor
Unknown
Orbital elements
Apogee altitude
843.367 km
Perigee altitude
769.179 km
Semi-major axis
7,184.41 km
Eccentricity
0.00516
Inclination
98.704°
RAAN
275.4805°
Arg. of periapsis
289.178°
True anomaly
70.94°
Mean anomaly
70.3815°
Eccentric anomaly
70.66063°
Mean motion
3.56415 °/min
Orbital period
101.01 mins
BSTAR
0.00091981
Loading maneuver chart data...
Computing Atmospheric mass density...

Documentation

Showing up to 5 results
|